Location: Oriwa
(40.7500°S, 175.3333°E)
Time: 11:52:12
(UTC+00:00)

SL-16 R/B - Pass Details

Date: 03 February 2023
Orbit: 985 x 1006 km, 99.6° (Epoch: 30 March)

Event Time Altitude Azimuth Distance (km) Brightness Sun altitude
Rises 15:09:50 0° 163° (SSE) 3,749 6.7 -22.1°
Reaches altitude 10° 15:12:22 10° 160° (SSE) 2,790 5.9 -21.8°
Maximum altitude 15:18:36 65° 78° (ENE) 1,091 2.8 -21.0°
Enters shadow 15:22:30 24° 1° (N) 1,939 3.7 -20.5°
